User: anonymous   Login
Location: Unspecified
(0.0000°N, 0.0000°E)
Time: 14:47:12
(UTC+00:00)
Language:

Delta IV Demo - Orbit

View from above orbital plane
View from above orbital plane
View from above satellite
View from above satellite

Ground track
Ground track

The orbit data is extracted from the following two-line orbital elements,

1 28500U 04050A   24105.88614683 -.00000129  00000-0  00000+0 0  9992
2 28500  15.4591 323.4741 2793812 332.8000 350.9894  1.41309776 99660
Epoch (UTC): 14 April 2024 21:16:03
Eccentricity: 0.2793812
inclination: 15.4591°
perigee height: 17794 km
apogee height: 36537 km
right ascension of ascending node: 323.4741°
argument of perigee: 332.8000°
revolutions per day: 1.41309776
mean anomaly at epoch: 350.9894°
orbit number at epoch: 9966

The dashed part of the orbit path shows where the satellite is in the earth's shadow,  

DLR